User: anonymous   Login
Location: Unspecified
(0.0000°N, 0.0000°E)
Time: 13:50:07
(UTC+02:00)
Language:

ITAMSAT 1 - Orbit

View from above orbital plane
View from above orbital plane
View from above satellite
View from above satellite

Ground track
Ground track

The orbit data is extracted from the following two-line orbital elements,

1 22826U 93061D   15121.44639121  .00000112  00000-0  60344-4 0  9994
2 22826 098.6989 071.7271 0010124 078.9184 281.3136 14.30185958126402
Epoch (UTC): 01 May 2015 10:42:48
Eccentricity: 0.0010124
inclination: 98.6989°
perigee height: 784 km
apogee height: 798 km
right ascension of ascending node: 71.7271°
argument of perigee: 78.9184°
revolutions per day: 14.30185958
mean anomaly at epoch: 281.3136°
orbit number at epoch: 12640

The dashed part of the orbit path shows where the satellite is in the earth's shadow,  

DLR